N461VZ KNQA-KOLV

Flight info

Callsign N461VZ
Flight time 0h 35m
Altitude 3000
Route DCT
Aircraft C172/L-SDFGR/1200

Departure

Time 2026-05-04 20:41
Airport Millington-Memphis Airport (KNQA)

Arrival

Time 2026-05-04 21:16
Airport Olive Branch Airport (KOLV)
Time Latitude Longitude Altitude Speed Heading
2026-05-04 20:31 35.34765 -89.87779 273 ft 0 kts 308°
2026-05-04 20:33 35.34767 -89.87775 273 ft 1 kts 142°
2026-05-04 20:33 35.34733 -89.87675 274 ft 22 kts 88°
2026-05-04 20:33 35.34836 -89.87511 279 ft 24 kts 53°
2026-05-04 20:33 35.34915 -89.87347 282 ft 20 kts 60°
2026-05-04 20:34 35.34985 -89.87191 285 ft 21 kts 65°
2026-05-04 20:34 35.35058 -89.87038 289 ft 20 kts 59°
2026-05-04 20:34 35.35127 -89.86914 293 ft 14 kts 27°
2026-05-04 20:34 35.35252 -89.86888 294 ft 22 kts
2026-05-04 20:35 35.35428 -89.86865 296 ft 27 kts
2026-05-04 20:35 35.35546 -89.86902 297 ft 15 kts 325°
2026-05-04 20:35 35.35590 -89.86941 296 ft 0 kts 320°
2026-05-04 20:35 35.35590 -89.86942 296 ft 0 kts 313°
2026-05-04 20:39 35.35592 -89.86943 296 ft 2 kts 310°
2026-05-04 20:39 35.35651 -89.87006 295 ft 18 kts 308°
2026-05-04 20:40 35.35658 -89.87045 295 ft 0 kts 220°
2026-05-04 20:40 35.35545 -89.87160 293 ft 45 kts 218°
2026-05-04 20:40 35.35249 -89.87455 412 ft 55 kts 215°
2026-05-04 20:40 35.34963 -89.87764 612 ft 51 kts 217°
2026-05-04 20:41 35.34719 -89.88055 784 ft 50 kts 216°
2026-05-04 20:41 35.34398 -89.88301 939 ft 51 kts 203°
2026-05-04 20:41 35.34041 -89.88429 1026 ft 63 kts 191°
2026-05-04 20:41 35.33607 -89.88316 1208 ft 67 kts 168°
2026-05-04 20:42 35.33195 -89.88106 1404 ft 63 kts 164°
2026-05-04 20:42 35.32795 -89.87824 1517 ft 68 kts 166°
2026-05-04 20:42 35.32394 -89.87543 1669 ft 69 kts 165°
2026-05-04 20:42 35.31974 -89.87275 1824 ft 69 kts 166°
2026-05-04 20:43 35.31544 -89.87017 2007 ft 68 kts 166°
2026-05-04 20:43 35.31107 -89.86755 2177 ft 70 kts 164°
2026-05-04 20:43 35.30672 -89.86533 2329 ft 68 kts 173°
2026-05-04 20:43 35.30220 -89.86350 2505 ft 69 kts 168°
2026-05-04 20:44 35.29784 -89.86114 2666 ft 69 kts 168°
2026-05-04 20:44 35.29342 -89.85872 2826 ft 70 kts 170°
2026-05-04 20:44 35.28893 -89.85645 2938 ft 77 kts 168°
2026-05-04 20:44 35.28339 -89.85362 2902 ft 89 kts 166°
2026-05-04 20:45 35.27782 -89.85098 2874 ft 82 kts 172°
2026-05-04 20:45 35.27232 -89.84837 2965 ft 83 kts 168°
2026-05-04 20:45 35.26688 -89.84561 2911 ft 87 kts 168°
2026-05-04 20:45 35.26147 -89.84275 2908 ft 82 kts 168°
2026-05-04 20:46 35.25613 -89.84013 2868 ft 81 kts 173°
2026-05-04 20:46 35.25087 -89.83807 2889 ft 78 kts 170°
2026-05-04 20:46 35.24585 -89.83535 2878 ft 80 kts 167°
2026-05-04 20:46 35.24075 -89.83270 2886 ft 76 kts 171°
2026-05-04 20:47 35.23573 -89.83025 2876 ft 79 kts 170°
2026-05-04 20:47 35.23060 -89.82837 2934 ft 75 kts 175°
2026-05-04 20:47 35.22549 -89.82649 2995 ft 78 kts 172°
2026-05-04 20:47 35.22015 -89.82424 3033 ft 83 kts 165°
2026-05-04 20:48 35.21500 -89.82074 3028 ft 84 kts 166°
2026-05-04 20:48 35.20970 -89.81806 3046 ft 81 kts 170°
2026-05-04 20:48 35.20440 -89.81565 3054 ft 81 kts 169°
2026-05-04 20:48 35.19907 -89.81297 3053 ft 83 kts 167°
2026-05-04 20:49 35.19376 -89.81019 3063 ft 83 kts 168°
2026-05-04 20:49 35.18848 -89.80741 3059 ft 83 kts 168°
2026-05-04 20:49 35.18305 -89.80457 3052 ft 84 kts 168°
2026-05-04 20:49 35.17775 -89.80173 3059 ft 84 kts 167°
2026-05-04 20:50 35.17233 -89.79882 3075 ft 82 kts 167°
2026-05-04 20:50 35.16704 -89.79600 3053 ft 86 kts 167°
2026-05-04 20:50 35.16166 -89.79315 3102 ft 81 kts 167°
2026-05-04 20:50 35.15642 -89.79032 3081 ft 84 kts 167°
2026-05-04 20:51 35.15095 -89.78751 3101 ft 82 kts 166°
2026-05-04 20:51 35.14563 -89.78482 3089 ft 85 kts 168°
2026-05-04 20:51 35.14020 -89.78204 3120 ft 82 kts 167°
2026-05-04 20:51 35.13486 -89.77929 3100 ft 85 kts 167°
2026-05-04 20:52 35.12944 -89.77659 3126 ft 81 kts 169°
2026-05-04 20:52 35.12412 -89.77378 3058 ft 96 kts 150°
2026-05-04 20:52 35.12117 -89.76585 3084 ft 107 kts 103°
2026-05-04 20:52 35.11962 -89.75738 3070 ft 103 kts 121°
2026-05-04 20:53 35.11716 -89.74925 3096 ft 102 kts 115°
2026-05-04 20:53 35.11800 -89.73972 3008 ft 124 kts 69°
2026-05-04 20:53 35.12365 -89.73225 3069 ft 117 kts 34°
2026-05-04 20:53 35.13063 -89.72693 3035 ft 121 kts 19°
2026-05-04 20:54 35.13870 -89.72524 3044 ft 112 kts 346°
2026-05-04 20:54 35.14576 -89.72793 3037 ft 105 kts 320°
2026-05-04 20:54 35.15310 -89.73025 3010 ft 118 kts 352°
2026-05-04 20:54 35.16115 -89.72932 3041 ft 111 kts 341°
2026-05-04 20:55 35.16761 -89.73354 2987 ft 98 kts 295°
2026-05-04 20:55 35.17089 -89.74015 3040 ft 88 kts 283°
2026-05-04 20:55 35.17361 -89.74689 3022 ft 90 kts 281°
2026-05-04 20:55 35.17637 -89.75369 3031 ft 89 kts 282°
2026-05-04 20:56 35.17915 -89.76057 3029 ft 89 kts 282°
2026-05-04 20:56 35.18189 -89.76741 3025 ft 90 kts 281°
2026-05-04 20:56 35.18333 -89.77434 3008 ft 81 kts 249°
2026-05-04 20:56 35.18010 -89.77934 3005 ft 73 kts 211°
2026-05-04 20:57 35.17564 -89.78219 3020 ft 74 kts 208°
2026-05-04 20:57 35.17111 -89.78534 3003 ft 75 kts 215°
2026-05-04 20:57 35.16591 -89.78600 2959 ft 85 kts 170°
2026-05-04 20:57 35.16149 -89.78040 2919 ft 103 kts 123°
2026-05-04 20:58 35.16133 -89.77115 2880 ft 117 kts 79°
2026-05-04 20:58 35.16627 -89.76302 2837 ft 122 kts 33°
2026-05-04 20:58 35.17416 -89.75984 2797 ft 117 kts 358°
2026-05-04 20:58 35.18225 -89.75892 2745 ft 118 kts 356°
2026-05-04 20:59 35.19046 -89.75813 2692 ft 118 kts 356°
2026-05-04 20:59 35.19868 -89.75739 2635 ft 119 kts 355°
2026-05-04 20:59 35.20695 -89.75671 2594 ft 118 kts 354°
2026-05-04 20:59 35.21510 -89.75591 2581 ft 116 kts 355°
2026-05-04 21:00 35.22310 -89.75520 2575 ft 114 kts 354°
2026-05-04 21:00 35.23102 -89.75451 2565 ft 113 kts 356°
2026-05-04 21:00 35.23871 -89.75438 2560 ft 106 kts 334°
2026-05-04 21:00 35.24422 -89.75871 2565 ft 86 kts 289°
2026-05-04 21:01 35.24507 -89.76493 2577 ft 69 kts 240°
2026-05-04 21:01 35.24335 -89.77049 2568 ft 70 kts 239°
2026-05-04 21:01 35.24148 -89.77610 2565 ft 71 kts 239°
2026-05-04 21:01 35.23957 -89.78166 2559 ft 71 kts 238°
2026-05-04 21:02 35.23663 -89.78635 2555 ft 69 kts 214°
2026-05-04 21:02 35.23226 -89.78899 2552 ft 71 kts 202°
2026-05-04 21:02 35.22728 -89.78989 2548 ft 73 kts 193°
2026-05-04 21:02 35.22211 -89.79049 2538 ft 74 kts 192°
2026-05-04 21:03 35.21696 -89.79084 2535 ft 75 kts 191°
2026-05-04 21:03 35.21172 -89.79105 2530 ft 75 kts 189°
2026-05-04 21:03 35.20648 -89.79113 2537 ft 74 kts 190°
2026-05-04 21:03 35.20134 -89.79115 2529 ft 74 kts 188°
2026-05-04 21:04 35.19613 -89.79112 2529 ft 74 kts 188°
2026-05-04 21:04 35.19090 -89.79106 2527 ft 74 kts 187°
2026-05-04 21:04 35.18564 -89.79101 2520 ft 75 kts 187°
2026-05-04 21:04 35.18045 -89.79089 2511 ft 75 kts 187°
2026-05-04 21:05 35.17521 -89.79077 2511 ft 74 kts 187°
2026-05-04 21:05 35.17003 -89.79068 2504 ft 74 kts 187°
2026-05-04 21:05 35.16494 -89.79050 2489 ft 72 kts 188°
2026-05-04 21:05 35.15992 -89.79033 2481 ft 70 kts 187°
2026-05-04 21:06 35.15513 -89.79018 2472 ft 69 kts 188°
2026-05-04 21:06 35.15030 -89.79005 2465 ft 68 kts 188°
2026-05-04 21:06 35.14563 -89.78995 2465 ft 67 kts 188°
2026-05-04 21:06 35.14093 -89.78986 2476 ft 66 kts 188°
2026-05-04 21:07 35.13633 -89.78975 2477 ft 64 kts 189°
2026-05-04 21:07 35.13225 -89.78961 2514 ft 58 kts 188°
2026-05-04 21:07 35.12814 -89.78953 2504 ft 59 kts 188°
2026-05-04 21:07 35.12402 -89.78944 2499 ft 59 kts 187°
2026-05-04 21:08 35.11988 -89.78937 2499 ft 60 kts 189°
2026-05-04 21:08 35.11560 -89.78929 2491 ft 62 kts 189°
2026-05-04 21:08 35.11121 -89.78921 2490 ft 62 kts 187°
2026-05-04 21:08 35.10688 -89.78915 2487 ft 62 kts 188°
2026-05-04 21:09 35.10246 -89.78909 2476 ft 63 kts 189°
2026-05-04 21:09 35.09813 -89.78899 2472 ft 62 kts 188°
2026-05-04 21:09 35.09372 -89.78893 2456 ft 62 kts 188°
2026-05-04 21:09 35.08929 -89.78885 2457 ft 63 kts 186°
2026-05-04 21:10 35.08521 -89.78871 2501 ft 59 kts 186°
2026-05-04 21:10 35.08095 -89.78863 2423 ft 65 kts 189°
2026-05-04 21:10 35.07629 -89.78866 2233 ft 69 kts 188°
2026-05-04 21:10 35.07149 -89.78862 2086 ft 67 kts 189°
2026-05-04 21:11 35.06686 -89.78855 1915 ft 65 kts 190°
2026-05-04 21:11 35.06227 -89.78848 1749 ft 66 kts 191°
2026-05-04 21:11 35.05757 -89.78841 1616 ft 66 kts 190°
2026-05-04 21:11 35.05314 -89.78828 1548 ft 62 kts 186°
2026-05-04 21:12 35.04898 -89.78719 1492 ft 62 kts 176°
2026-05-04 21:12 35.04526 -89.78618 1493 ft 50 kts 193°
2026-05-04 21:12 35.04184 -89.78616 1450 ft 50 kts 191°
2026-05-04 21:12 35.03830 -89.78645 1386 ft 52 kts 189°
2026-05-04 21:13 35.03465 -89.78664 1323 ft 53 kts 193°
2026-05-04 21:13 35.03111 -89.78696 1274 ft 54 kts 189°
2026-05-04 21:13 35.02733 -89.78699 1229 ft 56 kts 191°
2026-05-04 21:13 35.02320 -89.78691 1144 ft 59 kts 192°
2026-05-04 21:14 35.01902 -89.78736 1028 ft 63 kts 192°
2026-05-04 21:14 35.01466 -89.78717 930 ft 63 kts 184°
2026-05-04 21:14 35.01038 -89.78648 837 ft 61 kts 188°
2026-05-04 21:14 35.00631 -89.78659 749 ft 62 kts 192°
2026-05-04 21:15 35.00185 -89.78673 644 ft 64 kts 177°
2026-05-04 21:15 34.99744 -89.78677 557 ft 61 kts 177°
2026-05-04 21:15 34.99305 -89.78691 491 ft 65 kts 175°
2026-05-04 21:15 34.98858 -89.78693 439 ft 66 kts 170°
2026-05-04 21:16 34.98408 -89.78682 402 ft 61 kts 174°
2026-05-04 21:16 34.97993 -89.78680 398 ft 56 kts 178°
2026-05-04 21:16 34.97681 -89.78686 395 ft 31 kts 184°
2026-05-04 21:16 34.97606 -89.78724 393 ft 11 kts 267°
2026-05-04 21:17 34.97606 -89.78781 393 ft 0 kts 276°
2026-05-04 21:19 34.97606 -89.78805 394 ft 6 kts 268°
2026-05-04 21:19 34.97604 -89.78882 395 ft 10 kts 258°
2026-05-04 21:19 34.97566 -89.78937 396 ft 7 kts 197°
2026-05-04 21:20 34.97533 -89.78960 397 ft 1 kts 199°
2026-05-04 21:20 34.97529 -89.78951 397 ft 5 kts 113°
2026-05-04 21:20 34.97518 -89.78938 396 ft 0 kts 171°
2026-05-04 21:20 34.97489 -89.78951 397 ft 4 kts 233°
2026-05-04 21:21 34.97468 -89.78957 397 ft 0 kts 87°
2026-05-04 21:32 34.97468 -89.78951 397 ft 2 kts 89°
2026-05-04 21:32 34.97523 -89.78919 396 ft 15 kts
2026-05-04 21:32 34.97600 -89.78875 395 ft 10 kts 85°
2026-05-04 21:32 34.97605 -89.78778 393 ft 14 kts 90°
2026-05-04 21:33 34.97649 -89.78690 394 ft 23 kts 349°
2026-05-04 21:33 34.97992 -89.78712 399 ft 70 kts 359°
2026-05-04 21:33 34.98542 -89.78651 480 ft 86 kts 347°
2026-05-04 21:33 34.99173 -89.78559 607 ft 97 kts
2026-05-04 21:34 34.99393 -89.77932 643 ft 83 kts 149°
2026-05-04 21:34 34.98944 -89.77970 650 ft 69 kts 204°
2026-05-04 21:34 34.98484 -89.78186 605 ft 74 kts 205°
2026-05-04 21:34 34.97970 -89.78221 612 ft 81 kts 165°
2026-05-04 21:35 34.97521 -89.77763 654 ft 77 kts 159°
2026-05-04 21:35 34.97072 -89.77566 708 ft 63 kts 184°
2026-05-04 21:35 34.96639 -89.77598 725 ft 61 kts 194°
2026-05-04 21:35 34.96205 -89.77622 733 ft 65 kts 191°
2026-05-04 21:36 34.95953 -89.77926 777 ft 64 kts 261°
2026-05-04 21:36 34.96277 -89.78451 655 ft 94 kts 316°
2026-05-04 21:36 34.96918 -89.78672 479 ft 99 kts 355°
2026-05-04 21:36 34.97576 -89.78678 399 ft 83 kts
2026-05-04 21:37 34.98096 -89.78690 398 ft 64 kts 359°
2026-05-04 21:37 34.98370 -89.78688 397 ft 20 kts 12°
2026-05-04 21:37 34.98404 -89.78683 396 ft 5 kts
2026-05-04 21:37 34.98510 -89.78725 394 ft 15 kts 348°
2026-05-04 21:38 34.98643 -89.78722 392 ft 12 kts 37°
2026-05-04 21:38 34.98502 -89.78697 395 ft 46 kts 179°
2026-05-04 21:38 34.98113 -89.78696 412 ft 57 kts 184°
2026-05-04 21:38 34.97748 -89.78683 396 ft 45 kts 180°
2026-05-04 21:39 34.97436 -89.78679 392 ft 46 kts 183°
2026-05-04 21:39 34.97131 -89.78683 395 ft 36 kts 180°
2026-05-04 21:39 34.96952 -89.78677 395 ft 11 kts 182°
2026-05-04 21:39 34.96865 -89.78670 395 ft 12 kts 163°
2026-05-04 21:40 34.96831 -89.78642 394 ft 6 kts 163°
2026-05-04 21:40 34.96802 -89.78661 394 ft 6 kts 252°
2026-05-04 21:40 34.96826 -89.78710 396 ft 9 kts 338°
2026-05-04 21:40 34.96901 -89.78750 396 ft 7 kts 338°
2026-05-04 21:41 34.96934 -89.78756 396 ft 3 kts 358°
2026-05-04 21:41 34.96954 -89.78756 396 ft 10 kts
2026-05-04 21:41 34.97048 -89.78758 396 ft 12 kts 349°
2026-05-04 21:41 34.97057 -89.78820 397 ft 11 kts 284°
2026-05-04 21:42 34.97150 -89.78844 398 ft 18 kts 31°
2026-05-04 21:42 34.97282 -89.78815 395 ft 19 kts
2026-05-04 21:42 34.97343 -89.78900 396 ft 11 kts 325°
2026-05-04 21:42 34.97403 -89.78912 396 ft 9 kts 354°
2026-05-04 21:43 34.97480 -89.78933 396 ft 13 kts 351°
2026-05-04 21:43 34.97532 -89.78937 396 ft 0 kts